Starlink 11239

operational
NORAD ID: 60924 Int'l Des: 2024-155 Owner: SPXS Country: US Constellation: starlink
LEOCIRCULAR

Über Starlink 11239

Beschreibung wird geladen...

Live-Position

3D-Globus wird geladen...

Nächste Überflüge

Höhenverlauf

Altitude vs Time

uPlot chart will show altitude changes over time

Zweizeiliger Elementsatz

1 60924U 24155A 25305.56248814 .00000099 00000-0 56813-5 0 9997
2 60924 53.1588 253.2376 0001441 95.6812 264.4370 15.69724490 68278
Epoch: 1. Nov. 2025 • Age: 19 hours

Aktueller Status

Höhe 365.2 km
Geschwindigkeit 7.70 km/s
Subsatellitenpunkt 53.07°N, 167.02°E
Startdatum 31. Aug. 2024
Alter 1.1 years
Typ internet

Technische Details

Klassifizierung Payload
Masse 960.00 kg
Trockenmasse 910.00 kg
Gesamtmasse 960.00 kg
Länge 0.30 m
Durchmesser 4.10 m
Spannweite 29.00 m
Form Box + pan
Hersteller SPXS
Bus-Typ Starlink V2MD
Phasenstatus In Orbit
Besitzer/Staat SPXS/US

Große Konstellationen

Loading constellations...